FW1983 Weather Reports


Display with metric or nautical units.
time (UTC)temp
F
wind
direction
speed
MPH
gust
MPH
rain 1hr
in
rain 24hr
in
rain mn
in
humidity
%
barometer
mb
20260906110018 70 69 0.0 0.0 0.00 0.00 0.00 86 1016.2
20260906104520 70 69 0.0 3.0 0.00 0.00 0.00 86 1016.1
20260906103009 71 69 0.0 2.0 0.00 0.00 0.00 85 1015.6
20260906101508 71 69 0.0 1.0 0.00 0.00 0.00 85 1015.6
20260906100015 71 69 0.0 3.0 0.00 0.00 0.00 86 1015.5
20260906094507 71 69 0.0 1.0 0.00 0.00 0.00 85 1015.5
20260906093008 72 72 0.0 3.0 0.00 0.00 0.00 85 1015.4
20260906091515 72 71 0.0 3.0 0.00 0.00 0.00 86 1015.4
20260906090006 72 76 0.0 4.0 0.00 0.00 0.00 86 1015.4
20260906084505 72 71 0.0 1.0 0.00 0.00 0.00 86 1015.4
20260906083012 72 69 0.0 3.0 0.00 0.00 0.00 86 1015.3
20260906081509 72 60 0.0 0.0 0.00 0.00 0.00 86 1015.3
20260906080004 72 58 0.0 2.0 0.00 0.00 0.00 87 1015.3
20260906074503 72 56 0.0 3.0 0.00 0.00 0.00 87 1015.3
20260906073002 72 64 0.0 4.0 0.00 0.00 0.00 88 1015.3
20260906071501 72 333 0.0 3.0 0.00 0.00 0.00 88 1015.5
20260906070100 71 344 0.0 2.0 0.00 0.00 0.00 88 1015.5
20260906064600 71 344 0.0 3.0 0.00 0.00 0.00 88 1015.4
20260906063059 71 360 0.0 3.0 0.00 0.00 0.00 88 1015.4
20260906061609 71 328 0.0 3.0 0.00 0.00 0.00 88 1015.4
20260906060058 71 340 0.0 1.0 0.00 0.00 0.00 89 1015.4
20260906054558 71 263 0.0 3.0 0.00 0.00 0.00 89 1015.4
20260906053055 71 345 0.0 3.0 0.00 0.00 0.00 89 1015.3
20260906051601 71 57 0.0 3.0 0.00 0.00 0.00 89 1015.1
20260906050054 71 333 1.0 4.0 0.00 0.00 0.00 89 1015.0
20260906044551 71 5 0.0 5.0 0.00 0.00 0.00 89 1014.9
20260906043047 72 286 0.0 8.0 0.00 0.00 0.00 88 1014.7
20260906041547 72 83 2.0 6.0 0.00 0.00 0.00 88 1014.5
20260906040047 72 45 2.0 6.0 0.00 0.00 0.00 88 1014.4
20260906034545 72 42 1.0 5.0 0.00 0.00 0.00 88 1014.4
20260906033048 72 52 2.0 7.0 0.00 0.00 0.00 87 1014.4
20260906031555 72 35 2.0 7.0 0.00 0.00 0.00 87 1014.5
20260906030044 72 38 3.0 7.0 0.00 0.00 0.00 87 1014.5
20260906024542 72 82 2.0 8.0 0.00 0.00 0.00 86 1014.3
20260906023041 72 24 3.0 9.0 0.00 0.00 0.00 86 1014.3
20260906021543 72 12 2.0 8.0 0.00 0.00 0.00 86 1014.4
20260906020040 72 9 3.0 8.0 0.00 0.00 0.00 85 1014.5
20260906014540 72 72 1.0 7.0 0.00 0.00 0.00 85 1014.4
20260906013040 72 329 1.0 6.0 0.00 0.00 0.00 85 1014.5
20260906011541 72 346 2.0 9.0 0.00 0.00 0.00 85 1014.3
20260906010035 72 71 2.0 8.0 0.00 0.00 0.00 85 1014.0
20260906004534 72 65 2.0 8.0 0.00 0.00 0.00 85 1013.7
20260906003032 72 348 2.0 6.0 0.00 0.00 0.00 85 1013.6
20260906001531 73 49 2.0 9.0 0.00 0.00 0.00 84 1013.6
20260906000030 73 355 3.0 7.0 0.00 0.00 0.00 84 1013.6
20260905234529 73 355 3.0 10.0 0.00 0.00 0.00 85 1013.6
20260905233028 73 292 1.0 8.0 0.00 0.00 0.00 85 1013.7
20260905231527 73 339 3.0 11.0 0.00 0.00 0.00 85 1013.7
20260905230028 73 300 5.0 13.0 0.00 0.00 0.00 84 1013.4
20260905224532 74 28 4.0 9.0 0.00 0.00 0.00 83 1013.5
20260905223022 75 286 3.0 11.0 0.00 0.00 0.00 83 1013.4
20260905221521 75 295 3.0 11.0 0.00 0.00 0.00 83 1013.2
20260905220021 76 45 4.0 12.0 0.00 0.00 0.00 82 1013.1
20260905214520 76 121 4.0 10.0 0.00 0.00 0.00 82 1013.0
20260905213015 76 60 5.0 11.0 0.00 0.00 0.00 81 1012.7
20260905211514 77 344 3.0 9.0 0.00 0.00 0.00 81 1012.7
20260905210011 77 355 3.0 10.0 0.00 0.00 0.00 81 1012.8
20260905204516 78 57 3.0 11.0 0.00 0.00 0.00 80 1012.8
20260905203010 78 326 4.0 12.0 0.00 0.00 0.00 79 1012.7
20260905201510 78 265 3.0 9.0 0.00 0.00 0.00 78 1012.7
20260905200009 78 26 3.0 9.0 0.00 0.00 0.00 78 1012.9
20260905194509 78 319 5.0 11.0 0.00 0.00 0.00 78 1012.9
20260905193010 78 318 3.0 11.0 0.00 0.00 0.00 78 1013.0
20260905191508 78 344 4.0 9.0 0.00 0.00 0.00 78 1013.1
20260905190007 78 355 2.0 10.0 0.00 0.00 0.00 79 1013.1
20260905184507 78 347 2.0 9.0 0.00 0.00 0.00 79 1013.2
20260905183005 77 34 4.0 9.0 0.00 0.00 0.00 80 1013.1
20260905181505 77 51 3.0 10.0 0.00 0.00 0.00 80 1013.2
20260905180004 77 355 5.0 10.0 0.00 0.00 0.00 80 1013.1
20260905174606 78 283 2.0 9.0 0.00 0.00 0.00 80 1013.1
20260905173003 78 323 4.0 8.0 0.00 0.00 0.00 80 1013.1
20260905171502 78 84 3.0 8.0 0.00 0.00 0.00 80 1013.1
20260905170002 77 13 4.0 13.0 0.00 0.00 0.00 80 1013.3
20260905164501 77 329 4.0 9.0 0.00 0.00 0.00 81 1013.3
20260905163102 77 46 3.0 8.0 0.00 0.00 0.00 81 1013.3
20260905161600 77 288 2.0 10.0 0.00 0.00 0.00 82 1013.3
20260905160133 78 22 2.0 9.0 0.00 0.00 0.00 83 1013.1
20260905154559 77 17 2.0 9.0 0.00 0.00 0.00 83 1013.0
20260905153054 77 355 3.0 10.0 0.00 0.00 0.00 84 1012.8
20260905151602 77 269 3.0 8.0 0.00 0.00 0.00 84 1012.7
20260905150051 77 355 3.0 8.0 0.00 0.00 0.00 85 1012.7
20260905144551 77 317 2.0 10.0 0.00 0.00 0.00 86 1012.4
20260905143049 76 346 1.0 5.0 0.00 0.00 0.00 88 1012.3
20260905141547 75 273 2.0 8.0 0.00 0.00 0.00 89 1012.2
20260905140045 75 348 1.0 6.0 0.00 0.00 0.00 91 1012.2
20260905134545 75 308 2.0 6.0 0.00 0.00 0.00 92 1012.3
20260905133045 74 286 0.0 5.0 0.00 0.00 0.00 92 1012.5
20260905131541 74 17 2.0 6.0 0.00 0.00 0.00 92 1012.1
20260905130040 74 360 2.0 8.0 0.00 0.00 0.00 93 1012.0
20260905124540 74 317 1.0 4.0 0.00 0.00 0.00 93 1011.8
20260905123033 73 327 1.0 3.0 0.00 0.00 0.00 93 1011.5
20260905121531 73 90 1.0 4.0 0.00 0.00 0.00 93 1011.4
20260905120029 73 49 0.0 4.0 0.00 0.00 0.00 92 1011.2
20260905114528 73 344 0.0 4.0 0.00 0.00 0.00 92 1011.0
20260905113025 73 94 0.0 5.0 0.00 0.00 0.00 91 1010.8
20260905111524 73 333 1.0 4.0 0.00 0.00 0.00 91 1010.7